Regional Weather Roundup
Issued by NWS

Home | Current Version | Previous Version | Text Only | Print | Product List | Glossary Off
Versions: 1 2 3 4 5 6 7 8 9 10 11 12 13 14 15 16 17 18 19 20 21 22 23 24 25 26 27 28 29 30 31 32 33 34 35 36 37 38 39 40 41 42 43 44 45 46 47 48 49 50

000
ASUS43 KIND 011409
RWRIN

WEATHER ROUNDUP FOR INDIANA
NATIONAL WEATHER SERVICE INDIANAPOLIS IN
1000 AM EDT MON SEP 01 2014

NOTE: "FAIR" INDICATES FEW OR NO CLOUDS BELOW 12,000 FEET WITH NO
SIGNIFICANT WEATHER AND/OR OBSTRUCTIONS TO VISIBILITY.

* - STATION DOES NOT REPORT WEATHER SUCH AS PRECIPITATION OR FOG.

+ - STATION NOT QUALITY CONTROLLED BY THE NATIONAL WEATHER SERVICE.
    USE DATA WITH CAUTION...ESPECIALLY DEWPOINT AND RELATIVE
    HUMIDITY OBSERVATIONS.

INZ001>003-010>013-019-020-011500-
NORTHWEST INDIANA

CITY           SKY/WX    TMP DP  RH WIND       PRES   REMARKS
GARY /AIRPORT/ CLOUDY    75  72  88 S14       29.78F FOG
KNOX *+        CLOUDY    73  69  87 S9G17     29.82F
LA PORTE +     CLOUDY    73  73 100 S9        29.81F FOG
MICHIGAN CITY+ CLOUDY    73  70  88 S13G22    29.79F
MONTICELLO +   CLOUDY    74  71  92 S13       29.85F
RENSSELAER +   CLOUDY    73  72  94 S12G18    29.83S
VALPARAISO     CLOUDY    74  71  91 S14G21    29.81F

$$

LMZ046-743>745-011500-
SOUTHERN LAKE MICHIGAN

STATION/POSITION TIME  TEMP WIND        PRES
                       AIR  DIR/SP/G
                 (UTC) (F)  (DEG/KT/KT) (MB)
MICHIGAN CITY    1400   74  160/ 13/ 18   N/A

$$

INZ004-005-014>016-021>024-011500-
NORTH CENTRAL INDIANA

CITY           SKY/WX    TMP DP  RH WIND       PRES   REMARKS
ELKHART        CLOUDY    73  72  94 SW8       29.84F FOG
GOSHEN         CLOUDY    77  71  82 S15       29.85F
LOGANSPORT +   CLOUDY    73  70  88 S15G21    29.88F
PERU/GRISSOM   CLOUDY    75  75 100 SW18      29.88F
ROCHESTER +    PTSUNNY   77  72  83 S13       29.87F
SOUTH BEND     CLOUDY    75  70  84 S14       29.82F
WARSAW +       CLOUDY    73  72  94 S9        29.87F

$$

INZ006>009-017-018-025>027-011500-
NORTHEAST INDIANA

CITY           SKY/WX    TMP DP  RH WIND       PRES   REMARKS
ANGOLA *+      CLOUDY    72  64  78 S8        29.89F
AUBURN +       MOSUNNY   73  70  88 S6        29.90F FOG
FORT WAYNE     CLOUDY    75  71  87 S13       29.91F
HUNTINGTON +   CLOUDY    74  72  91 SW9G17    29.90F

$$

INZ028-029-035-036-043>045-051>053-011500-
WEST CENTRAL INDIANA

CITY           SKY/WX    TMP DP  RH WIND       PRES   REMARKS
GREENCASTLE +  PTSUNNY   75  72  88 S10G17    29.92F
LAFAYETTE      CLOUDY    75  71  87 S10G20    29.85F
TERRE HAUTE    CLOUDY    76  71  85 S14       29.90F

$$

INZ030>032-037>040-046>048-054>057-064-065-011500-
CENTRAL INDIANA

CITY           SKY/WX    TMP DP  RH WIND       PRES   REMARKS
CP ATTERBURY + CLOUDY    77  70  78 S9G16     29.96F
FRANKFORT +    CLOUDY    76  76 100 S13       29.90F
INDIANAPOLIS   CLOUDY    75  71  87 S15       29.92F
-EAGLE CREEK   CLOUDY    76  70  82 SW13G21   29.92F
KOKOMO *+      CLOUDY    75  70  83 SW18G24   29.90F
MARION +       PTSUNNY   76  70  83 SW13G22   29.92F
MT COMFORT *+  CLOUDY    75 N/A N/A S12       29.94F
SHELBYVILLE    CLOUDY    78  72  81 S10       29.95F
ZIONSVILLE +   MOSUNNY   77  70  81 S14G23    29.93F

$$

INZ033-034-041-042-049-050-058-059-011500-
EAST CENTRAL INDIANA

CITY           SKY/WX    TMP DP  RH WIND       PRES   REMARKS
MUNCIE         CLOUDY    76  71  85 SW10G17   29.94S

$$

INZ060-061-067>069-081>083-085>088-011500-
SOUTHWEST INDIANA

CITY           SKY/WX    TMP DP  RH WIND       PRES   REMARKS
EVANSVILLE     PTSUNNY   74  71  91 SW13      29.98F
WASHINGTON +   CLOUDY    76  73  90 SW12      29.95S

$$

INZ062-063-066-070>080-084-089>092-011500-
SOUTH CENTRAL AND SOUTHEAST INDIANA

CITY           SKY/WX    TMP DP  RH WIND       PRES   REMARKS
BLOOMINGTON    CLOUDY    76  72  87 S8        29.95F

$$



USA.gov is the U.S. government's official web portal to all federal, state and local government web resources and services.